Regional Weather Roundup
Issued by NWS State College, PA

Home | Current Version | Previous Version | Text Only | Print | Product List | Glossary Off
Versions: 1 2 3 4 5 6 7 8 9 10 11 12 13 14 15 16 17 18 19 20 21 22 23 24 25 26 27 28 29 30 31 32 33 34 35 36 37 38 39 40 41 42 43 44 45 46 47 48 49 50

000
ASUS41 KCTP 010703
RWRCTP

REGIONAL WEATHER ROUNDUP
NATIONAL WEATHER SERVICE STATE COLLEGE PA
300 AM EDT TUE SEP 01 2015

Note: "fair" indicates few or no clouds below 12,000 feet with no
significant weather and/or obstructions to visibility.

* = STATION THAT DOES NOT REPORT PRECIPITATION /E.G. RAIN...SNOW...ETC/
    THUNDER OR FOG.

PAZ002>004-007>009-013>016-020>023-029>032-010800-
WESTERN PENNSYLVANIA

CITY           SKY/WX    TMP DP  RH WIND       PRES   REMARKS
ERIE           CLEAR     66  62  87 S7        30.08S
MEADVILLE      CLEAR     66  62  87 S3        30.12S FOG
FRANKLIN*      CLEAR     63  61  94 CALM      30.14S
NEW CASTLE     FOG       66  66 100 CALM      30.12S VSB 1/4
BEAVER COUNTY  NOT AVBL
BUTLER*        CLEAR     66  64  94 CALM      30.13S VSB 1
PITTSBURGH INT CLEAR     71  66  84 CALM      30.11S
PITTSBURGH     CLEAR     72  63  73 NW3       30.10F
INDIANA*       CLOUDY    64  64 100 CALM      30.15S
LATROBE        NOT AVBL
WASHINGTON CO* CLEAR     63  63 100 CALM      30.12F
$$

PAZ004>006-010>012-017>019-024>028-033>037-041-042-045-046-049>053-010800-
CENTRAL PENNSYLVANIA

CITY           SKY/WX    TMP DP  RH WIND       PRES   REMARKS
BRADFORD       FOG       54  53  97 CALM      30.13F VSB 3/4
DUBOIS         CLEAR     67  63  87 CALM      30.12S FOG
CLEARFIELD     FOG       64  63  96 CALM      30.12S VSB 1/2
JOHNSTOWN      CLEAR     67  62  84 SW5       30.16S
ALTOONA        CLEAR     66  63  90 SW6       30.12S
STATE COLLEGE  PTCLDY    67  65  93 CALM      30.10R
WILLIAMSPORT   PTCLDY    67  65  93 CALM      30.04S FOG
SELINSGROVE    CLEAR     66  64  93 CALM      30.05S FOG
FT INDIANTOWN  CLEAR     66  65  98 NE1       30.03F FOG
CAPITAL CITY   CLEAR     73  65  75 CALM      30.03F
HARRISBURG     PTCLDY    70  67  90 CALM      30.03S
YORK           CLEAR     65  63  93 CALM      30.05R FOG
$$

PAZ038>040-043-044-047-048-054-055-060>062-067>071-010800-
EASTERN PENNSYLVANIA

CITY           SKY/WX    TMP DP  RH WIND       PRES   REMARKS
SCRANTON       CLEAR     68  64  87 E6        30.06S
MOUNT POCONO   CLEAR     63  60  90 CALM      30.10S FOG
ALLENTOWN      CLEAR     72  67  84 CALM      30.03S
QUAKERTOWN*    MOSUNNY   68  66  94 CALM      30.05R
READING        PTCLDY    72  67  84 CALM      30.02F
LANCASTER      CLEAR     69  67  93 CALM      30.03F
COATESVILLE    SUNNY     72  68  88 W5        30.05F
POTTSTOWN      CLEAR     68  68 100 CALM      30.04S
BLUE BELL      CLEAR     70  68  94 CALM      30.02F
DOYLESTOWN     PTCLDY    72  68  87 CALM      30.03R
WILLOW GROVE   NOT AVBL
NORTH PHILA    CLEAR     75  66  73 SW5       30.03S
PHILADELPHIA   CLEAR     76  69  79 SW9       30.03S
$$


USA.gov is the U.S. government's official web portal to all federal, state and local government web resources and services.